| time (UTC) | temp F | wind direction | speed MPH | gust MPH | rain 1hr in | rain 24hr in | rain mn in | humidity % | barometer mb |
| 20260509034515 | 51 | 69 | 0.0 | 0.0 | 0.00 | 0.17 | 0.00 | 86 | 1018.6 |
| 20260509033015 | 51 | 69 | 0.0 | 0.0 | 0.00 | 0.17 | 0.00 | 86 | 1018.5 |
| 20260509031514 | 51 | 69 | 0.0 | 0.0 | 0.00 | 0.17 | 0.00 | 86 | 1018.5 |
| 20260509030015 | 52 | 69 | 0.0 | 0.0 | 0.00 | 0.17 | 0.00 | 85 | 1018.5 |
| 20260509024514 | 52 | 69 | 0.0 | 0.0 | 0.00 | 0.17 | 0.00 | 85 | 1018.4 |
| 20260509023011 | 52 | 69 | 0.0 | 0.0 | 0.00 | 0.17 | 0.00 | 85 | 1018.3 |
| 20260509021511 | 52 | 69 | 0.0 | 0.0 | 0.00 | 0.17 | 0.00 | 86 | 1018.2 |
| 20260509020009 | 52 | 69 | 0.0 | 0.0 | 0.00 | 0.17 | 0.00 | 85 | 1018.3 |
| 20260509014511 | 53 | 69 | 0.0 | 0.0 | 0.00 | 0.17 | 0.00 | 86 | 1018.5 |
| 20260509013008 | 53 | 69 | 0.0 | 0.0 | 0.00 | 0.17 | 0.00 | 85 | 1018.2 |
| 20260509011508 | 53 | 69 | 0.0 | 0.0 | 0.00 | 0.17 | 0.00 | 85 | 1018.4 |
| 20260509010017 | 53 | 69 | 0.0 | 0.0 | 0.00 | 0.17 | 0.00 | 85 | 1018.5 |
| 20260509004517 | 53 | 69 | 0.0 | 0.0 | 0.00 | 0.17 | 0.00 | 85 | 1018.7 |
| 20260509003006 | 53 | 69 | 0.0 | 0.0 | 0.00 | 0.17 | 0.00 | 86 | 1018.6 |
| 20260509001505 | 52 | 69 | 0.0 | 0.0 | 0.00 | 0.17 | 0.00 | 87 | 1018.7 |
| 20260509000007 | 52 | 69 | 0.0 | 0.0 | 0.00 | 0.17 | 0.00 | 87 | 1018.7 |
| 20260508234506 | 52 | 69 | 0.0 | 0.0 | 0.00 | 0.17 | 0.00 | 87 | 1018.6 |
| 20260508233001 | 52 | 69 | 0.0 | 0.0 | 0.00 | 0.17 | 0.00 | 87 | 1018.6 |
| 20260508231601 | 53 | 69 | 0.0 | 0.0 | 0.00 | 0.17 | 0.00 | 87 | 1018.5 |
| 20260508230106 | 53 | 69 | 0.0 | 0.0 | 0.00 | 0.17 | 0.00 | 87 | 1018.5 |
| 20260508224557 | 53 | 69 | 0.0 | 0.0 | 0.00 | 0.17 | 0.00 | 87 | 1018.4 |
| 20260508223057 | 53 | 69 | 0.0 | 0.0 | 0.00 | 0.17 | 0.00 | 88 | 1018.3 |
| 20260508221554 | 53 | 69 | 0.0 | 0.0 | 0.00 | 0.17 | 0.00 | 88 | 1018.2 |
| 20260508220056 | 53 | 69 | 0.0 | 0.0 | 0.00 | 0.17 | 0.00 | 88 | 1018.1 |
| 20260508214554 | 53 | 69 | 0.0 | 0.0 | 0.00 | 0.17 | 0.17 | 88 | 1018.1 |
| 20260508213050 | 54 | 69 | 0.0 | 0.0 | 0.00 | 0.17 | 0.17 | 88 | 1018.1 |
| 20260508211550 | 54 | 69 | 0.0 | 0.0 | 0.00 | 0.17 | 0.17 | 88 | 1018.0 |
| 20260508210049 | 54 | 69 | 0.0 | 0.0 | 0.00 | 0.17 | 0.17 | 87 | 1018.0 |
| 20260508204548 | 55 | 69 | 0.0 | 0.0 | 0.00 | 0.17 | 0.17 | 87 | 1018.0 |
| 20260508203047 | 55 | 69 | 0.0 | 0.0 | 0.00 | 0.17 | 0.17 | 87 | 1017.9 |
| 20260508201546 | 56 | 69 | 0.0 | 0.0 | 0.00 | 0.17 | 0.17 | 85 | 1017.8 |
| 20260508200051 | 56 | 69 | 0.0 | 0.0 | 0.00 | 0.17 | 0.17 | 85 | 1017.5 |
| 20260508194541 | 57 | 69 | 0.0 | 0.0 | 0.00 | 0.17 | 0.17 | 84 | 1017.3 |
| 20260508193047 | 57 | 69 | 0.0 | 0.0 | 0.00 | 0.17 | 0.17 | 84 | 1017.3 |
| 20260508191540 | 58 | 69 | 0.0 | 0.0 | 0.00 | 0.17 | 0.17 | 82 | 1017.1 |
| 20260508190044 | 59 | 69 | 0.0 | 0.0 | 0.00 | 0.17 | 0.17 | 80 | 1016.9 |
| 20260508184541 | 60 | 69 | 0.0 | 0.0 | 0.00 | 0.17 | 0.17 | 78 | 1016.7 |
| 20260508183039 | 61 | 69 | 0.0 | 0.0 | 0.00 | 0.17 | 0.17 | 77 | 1016.5 |
| 20260508181538 | 62 | 69 | 0.0 | 0.0 | 0.00 | 0.17 | 0.17 | 76 | 1016.2 |
| 20260508180038 | 63 | 69 | 0.0 | 0.0 | 0.00 | 0.17 | 0.17 | 73 | 1016.0 |
| 20260508174540 | 64 | 69 | 0.0 | 0.0 | 0.00 | 0.17 | 0.17 | 71 | 1015.8 |
| 20260508173037 | 64 | 69 | 0.0 | 1.0 | 0.00 | 0.17 | 0.17 | 70 | 1015.7 |
| 20260508171535 | 66 | 69 | 0.0 | 4.0 | 0.00 | 0.17 | 0.17 | 68 | 1015.6 |
| 20260508170034 | 66 | 94 | 0.0 | 2.0 | 0.00 | 0.17 | 0.17 | 69 | 1015.6 |
| 20260508164536 | 66 | 94 | 0.0 | 1.0 | 0.00 | 0.17 | 0.17 | 68 | 1015.5 |
| 20260508163031 | 65 | 94 | 0.0 | 3.0 | 0.01 | 0.17 | 0.17 | 69 | 1015.5 |
| 20260508161529 | 64 | 94 | 0.0 | 1.0 | 0.01 | 0.17 | 0.17 | 72 | 1015.5 |
| 20260508160032 | 64 | 96 | 0.0 | 4.0 | 0.01 | 0.17 | 0.17 | 71 | 1015.5 |
| 20260508154528 | 64 | 108 | 0.0 | 7.0 | 0.01 | 0.17 | 0.17 | 70 | 1015.6 |
| 20260508153027 | 64 | 130 | 0.0 | 8.0 | 0.00 | 0.16 | 0.16 | 72 | 1015.8 |
| 20260508151530 | 64 | 124 | 0.0 | 5.0 | 0.00 | 0.16 | 0.16 | 72 | 1015.9 |
| 20260508150024 | 64 | 85 | 0.0 | 5.0 | 0.00 | 0.16 | 0.16 | 71 | 1015.9 |
| 20260508144522 | 63 | 77 | 0.0 | 1.0 | 0.00 | 0.16 | 0.16 | 72 | 1016.2 |
| 20260508143020 | 63 | 77 | 0.0 | 1.0 | 0.00 | 0.16 | 0.16 | 74 | 1016.3 |
| 20260508141519 | 63 | 76 | 0.0 | 1.0 | 0.00 | 0.16 | 0.16 | 76 | 1016.5 |
| 20260508140018 | 62 | 76 | 0.0 | 3.0 | 0.00 | 0.16 | 0.16 | 76 | 1016.7 |
| 20260508134518 | 63 | 69 | 0.0 | 2.0 | 0.00 | 0.16 | 0.16 | 76 | 1016.8 |
| 20260508133024 | 63 | 80 | 0.0 | 4.0 | 0.00 | 0.16 | 0.16 | 75 | 1016.9 |
| 20260508131518 | 62 | 80 | 0.0 | 1.0 | 0.00 | 0.16 | 0.16 | 76 | 1016.9 |
| 20260508130014 | 62 | 80 | 0.0 | 0.0 | 0.00 | 0.16 | 0.16 | 78 | 1016.9 |
| 20260508124514 | 62 | 79 | 0.0 | 0.0 | 0.00 | 0.16 | 0.16 | 78 | 1016.9 |
| 20260508123014 | 62 | 79 | 0.0 | 2.0 | 0.00 | 0.16 | 0.16 | 78 | 1017.1 |
| 20260508121514 | 62 | 78 | 0.0 | 1.0 | 0.00 | 0.16 | 0.16 | 78 | 1017.0 |
| 20260508120012 | 62 | 83 | 0.0 | 4.0 | 0.00 | 0.16 | 0.16 | 79 | 1017.2 |
| 20260508114510 | 62 | 107 | 0.0 | 5.0 | 0.00 | 0.16 | 0.16 | 79 | 1017.2 |
| 20260508113010 | 62 | 77 | 0.0 | 3.0 | 0.00 | 0.16 | 0.16 | 78 | 1017.2 |
| 20260508111513 | 62 | 75 | 0.0 | 6.0 | 0.00 | 0.16 | 0.16 | 79 | 1017.2 |
| 20260508110008 | 62 | 116 | 0.0 | 3.0 | 0.00 | 0.16 | 0.16 | 79 | 1017.2 |
| 20260508104510 | 61 | 124 | 0.0 | 4.0 | 0.00 | 0.16 | 0.16 | 78 | 1017.3 |
| 20260508103006 | 61 | 126 | 0.0 | 3.0 | 0.00 | 0.16 | 0.16 | 79 | 1017.3 |
| 20260508101506 | 61 | 128 | 0.0 | 0.0 | 0.00 | 0.16 | 0.16 | 79 | 1017.4 |
| 20260508100012 | 61 | 128 | 0.0 | 0.0 | 0.00 | 0.16 | 0.16 | 80 | 1017.3 |
| 20260508094502 | 61 | 128 | 0.0 | 1.0 | 0.00 | 0.16 | 0.16 | 82 | 1017.3 |
| 20260508093104 | 60 | 128 | 0.0 | 2.0 | 0.00 | 0.16 | 0.16 | 83 | 1017.3 |
| 20260508091614 | 59 | 128 | 0.0 | 4.0 | 0.00 | 0.16 | 0.16 | 84 | 1017.2 |
| 20260508090108 | 59 | 128 | 0.0 | 1.0 | 0.00 | 0.16 | 0.16 | 86 | 1017.1 |
| 20260508084553 | 58 | 128 | 0.0 | 0.0 | 0.00 | 0.16 | 0.16 | 86 | 1017.1 |
| 20260508083106 | 58 | 128 | 0.0 | 0.0 | 0.00 | 0.16 | 0.16 | 88 | 1017.1 |
| 20260508081557 | 57 | 128 | 0.0 | 0.0 | 0.00 | 0.16 | 0.16 | 87 | 1017.1 |
| 20260508080052 | 57 | 128 | 0.0 | 0.0 | 0.00 | 0.16 | 0.16 | 92 | 1017.1 |
| 20260508074548 | 57 | 128 | 0.0 | 0.0 | 0.00 | 0.16 | 0.16 | 93 | 1017.1 |
| 20260508073047 | 57 | 128 | 0.0 | 0.0 | 0.00 | 0.16 | 0.16 | 93 | 1017.1 |
| 20260508071554 | 56 | 128 | 0.0 | 0.0 | 0.00 | 0.16 | 0.16 | 93 | 1017.0 |
| 20260508070134 | 56 | 128 | 0.0 | 0.0 | 0.00 | 0.16 | 0.16 | 94 | 1017.0 |
| 20260508064547 | 56 | 128 | 0.0 | 0.0 | 0.02 | 0.16 | 0.16 | 93 | 1016.9 |
| 20260508063043 | 55 | 128 | 0.0 | 0.0 | 0.06 | 0.16 | 0.16 | 93 | 1016.9 |
| 20260508061548 | 54 | 128 | 0.0 | 0.0 | 0.09 | 0.16 | 0.16 | 92 | 1016.9 |
| 20260508060040 | 54 | 128 | 0.0 | 0.0 | 0.11 | 0.16 | 0.16 | 91 | 1016.8 |
| 20260508054543 | 54 | 128 | 0.0 | 0.0 | 0.13 | 0.14 | 0.14 | 90 | 1016.7 |
| 20260508053038 | 54 | 128 | 0.0 | 0.0 | 0.10 | 0.10 | 0.10 | 89 | 1016.7 |
| 20260508051535 | 54 | 128 | 0.0 | 0.0 | 0.06 | 0.06 | 0.06 | 87 | 1016.6 |
| 20260508050036 | 55 | 128 | 0.0 | 0.0 | 0.05 | 0.05 | 0.05 | 83 | 1016.4 |
| 20260508044529 | 56 | 128 | 0.0 | 0.0 | 0.02 | 0.02 | 0.02 | 81 | 1015.8 |
| 20260508043048 | 56 | 128 | 0.0 | 0.0 | 0.00 | 0.00 | 0.00 | 79 | 1015.5 |
| 20260508041527 | 55 | 128 | 0.0 | 0.0 | 0.00 | 0.00 | 0.00 | 80 | 1015.4 |
| 20260508040029 | 55 | 128 | 0.0 | 0.0 | 0.00 | 0.00 | 0.00 | 80 | 1015.3 |